[[{"header":{"parameterUnit":"m.s-1","parameterCategory":1,"la1":30.2991,"la2":30.254,"lo1":-89.0895,"lo2":-89.0444,"dy":0.0017,"dx":0.0017,"nx":28,"ny":28,"refTime":"2023-03-19T21:00:00:Z","depth":0,"parameterNumber":2,"parameterNumberName":"U-component_of_WINDS"},"data":[0,0,0,0,0,0,0,0,0,0,0,0,0,0,0,0,0,0,0,0,0,0,0,0,0,0,0,0,0,0,0,0,0,0,0,0,0,0,0,0,0,0,0,0,0,0,0,0,0,0,0,0,0,0,0,0,0,0,-0.0933,-0.0933,0,-0.0883,-0.0883,-0.0882,-0.0828,-0.0827,-0.0827,-0.0826,-0.0776,-0.0775,-0.0774,0,0,0,0,0,0,0,0,0,0,0,0,0,-0.0982,-0.0982,-0.0933,-0.0933,-0.0932,-0.0883,-0.0883,-0.0882,-0.0828,-0.0827,-0.0827,-0.0826,-0.0776,-0.0775,-0.0774,0,0,0,0,0,0,0,0,0,0,0,0,0,-0.095,-0.0981,-0.0933,-0.0899,-0.0896,-0.0883,-0.0883,-0.0882,-0.0829,-0.0827,-0.0826,-0.0825,-0.0776,-0.0775,-0.0774,-0.0792,0,0,-0.0771,-0.0771,0,0,0,0,0,0,0,0,-0.0952,-0.0948,-0.0905,-0.0902,-0.0898,-0.0861,-0.0881,-0.0852,-0.0829,-0.0854,-0.0826,-0.0825,-0.0805,-0.0802,-0.0795,-0.0789,-0.0787,-0.0771,-0.0771,-0.077,-0.077,0,0,0,0,0,0,0,-0.0954,-0.095,-0.0913,-0.0904,-0.09,-0.0887,-0.0881,-0.0876,-0.0837,-0.0852,-0.0848,-0.0843,-0.0803,-0.0796,-0.0793,-0.0786,-0.0771,-0.077,-0.077,-0.077,-0.0793,-0.0794,0,0,0,0,0,0,-0.0961,-0.0952,-0.0915,-0.0912,-0.0922,-0.0887,-0.088,-0.0874,-0.0837,-0.083,-0.0844,-0.084,-0.0798,-0.0794,-0.0791,-0.081,-0.077,-0.0769,-0.0769,-0.0792,-0.0793,-0.0794,0,0,0,0,0,0,-0.0962,-0.0958,-0.0917,-0.0931,-0.0925,-0.0887,-0.088,-0.0873,-0.0866,-0.083,-0.0823,-0.0844,-0.0797,-0.0793,-0.0792,-0.0807,-0.0769,-0.0768,-0.079,-0.0792,-0.0794,-0.0847,0,0,0,0,0,0,-0.0964,-0.0959,-0.0966,-0.0931,-0.0924,-0.0919,-0.0881,-0.0873,-0.0865,-0.086,-0.0829,-0.0822,-0.0796,-0.0794,-0.0791,-0.0805,-0.0767,-0.0789,-0.0791,-0.0793,-0.0844,-0.0851,-0.0856,0,0,0,0,0,-0.0966,-0.0983,-0.0966,-0.0962,-0.0931,-0.092,-0.0916,-0.0885,-0.0866,-0.0872,-0.0849,-0.0823,-0.0806,-0.0794,-0.0791,-0.0805,-0.0788,-0.0791,-0.0793,-0.0841,-0.0849,-0.0856,0,0,0,0,0,0,-0.102,-0.0977,-0.0959,-0.0965,-0.0946,-0.0911,-0.0918,-0.0894,-0.0881,-0.0877,-0.0839,-0.0832,-0.0836,-0.082,-0.0808,-0.082,-0.0793,-0.0795,-0.0831,-0.0838,-0.0844,-0.0849,-0.0767,0,0,0,0,0,-0.1032,-0.1027,-0.099,-0.0998,-0.099,-0.0956,-0.0949,-0.0927,-0.0906,-0.0899,-0.0875,-0.0856,-0.0847,-0.0841,-0.083,-0.0841,-0.0833,-0.0849,-0.0855,-0.086,-0.0863,-0.0868,-0.0875,-0.0803,-0.0803,-0.0803,0,0,-0.1058,-0.1034,-0.1033,-0.1009,-0.0992,-0.0987,-0.0949,-0.0946,-0.0942,-0.0898,-0.0896,-0.0878,-0.0855,-0.086,-0.0861,-0.0847,-0.0881,-0.0863,-0.0868,-0.0868,-0.0872,-0.0878,-0.0884,-0.0805,-0.0805,-0.0804,0,0,-0.1103,-0.1084,-0.109,-0.1073,-0.1048,-0.1025,-0.1026,-0.0994,-0.0981,-0.0978,-0.0945,-0.094,-0.0923,-0.0908,-0.0899,-0.0937,-0.0913,-0.0934,-0.0968,-0.0973,-0.0979,-0.0984,-0.0999,-0.1004,-0.0937,-0.0937,-0.0937,0,-0.1139,-0.1131,-0.1096,-0.1094,-0.1085,-0.1044,-0.105,-0.1035,-0.1008,-0.1002,-0.0986,-0.0965,-0.0946,-0.0948,-0.0958,-0.095,-0.0951,-0.0939,-0.0981,-0.0985,-0.0989,-0.1003,-0.1009,-0.094,-0.094,-0.0939,-0.0939,0,-0.1176,-0.1171,-0.1178,-0.1153,-0.1144,-0.1146,-0.1112,-0.1107,-0.1084,-0.1063,-0.1061,-0.1037,-0.1021,-0.1019,-0.0997,-0.1018,-0.101,-0.0987,-0.096,-0.0999,-0.1012,-0.1017,-0.0944,-0.0943,-0.0942,-0.0942,0,0,-0.1256,-0.121,-0.1214,-0.1202,-0.117,-0.1166,-0.1166,-0.1149,-0.1146,-0.1128,-0.1128,-0.1115,-0.1094,-0.1083,-0.1059,-0.1064,-0.1098,-0.1041,-0.104,-0.1054,-0.112,-0.1138,-0.1145,-0.1081,-0.1081,-0.1082,-0.1122,0,-0.1297,-0.1295,-0.1263,-0.127,-0.1265,-0.1225,-0.1225,-0.1207,-0.1186,-0.1179,-0.1156,-0.1148,-0.112,-0.1114,-0.1116,-0.1093,-0.1111,-0.1089,-0.1081,-0.1081,-0.109,-0.1151,-0.117,-0.121,-0.1127,-0.1128,-0.1128,0,-0.1345,-0.133,-0.1336,-0.1305,-0.1301,-0.1302,-0.1285,-0.1278,-0.1255,-0.124,-0.1228,-0.12,-0.1199,-0.1171,-0.1169,-0.1155,-0.1149,-0.1137,-0.1138,-0.1138,-0.1109,-0.1154,-0.1221,-0.1228,-0.1135,-0.1135,-0.1134,0,-0.1404,-0.1385,-0.1387,-0.1377,-0.134,-0.1342,-0.1327,-0.1303,-0.1295,-0.1279,-0.1274,-0.1259,-0.1251,-0.124,-0.1209,-0.1192,-0.1211,-0.118,-0.1199,-0.12,-0.1206,-0.1207,-0.1275,-0.12,-0.12,-0.1199,-0.1199,0,-0.1454,-0.146,-0.1413,-0.1414,-0.142,-0.1383,-0.139,-0.137,-0.1349,-0.1346,-0.131,-0.1309,-0.1267,-0.1261,-0.1237,-0.1239,-0.1235,-0.1223,-0.1217,-0.1228,-0.123,-0.1225,-0.1223,-0.1201,-0.1201,-0.12,-0.12,0,-0.1522,-0.1491,-0.149,-0.1455,-0.1446,-0.1452,-0.1422,-0.1422,-0.1398,-0.1395,-0.1392,-0.1356,-0.1346,-0.1314,-0.1297,-0.128,-0.1291,-0.1278,-0.1299,-0.1295,-0.1316,-0.1315,-0.1386,-0.1394,-0.1312,-0.1312,-0.1313,0,-0.1558,-0.1561,-0.1526,-0.1522,-0.1508,-0.1501,-0.1492,-0.1456,-0.1449,-0.1423,-0.1426,-0.1414,-0.1402,-0.1389,-0.1361,-0.1347,-0.1335,-0.136,-0.1333,-0.1344,-0.1338,-0.1339,-0.1339,-0.1367,-0.1368,-0.1369,-0.137,0,-0.1624,-0.1608,-0.1598,-0.1582,-0.1573,-0.1559,-0.1542,-0.1541,-0.15,-0.1494,-0.1483,-0.1474,-0.1456,-0.1444,-0.1426,-0.141,-0.1384,-0.1379,-0.1382,-0.1394,-0.1407,-0.1402,-0.1317,-0.1378,-0.1377,-0.1376,-0.1376,-0.1376,-0.1678,-0.168,-0.1655,-0.1645,-0.1629,-0.1614,-0.1613,-0.1589,-0.158,-0.1562,-0.154,-0.1533,-0.151,-0.1483,-0.1469,-0.1463,-0.1448,-0.1454,-0.1455,-0.1458,-0.1463,-0.1406,-0.1459,-0.1459,-0.1459,-0.1458,-0.1458,0,-0.1744,-0.1726,-0.1717,-0.1695,-0.1687,-0.1661,-0.1642,-0.1637,-0.1631,-0.1611,-0.16,-0.1589,-0.1577,-0.1548,-0.1534,-0.1535,-0.1522,-0.1532,-0.1533,-0.153,-0.1476,-0.1475,-0.1543,-0.1543,-0.1543,-0.1543,-0.1543,-0.1543,-0.1778,-0.178,-0.1761,-0.1754,-0.1736,-0.1729,-0.172,-0.1706,-0.1691,-0.1679,-0.1669,-0.165,-0.1627,-0.1611,-0.1599,-0.1591,-0.1588,-0.1603,-0.1591,-0.1542,-0.1534,-0.1526,-0.1525,-0.1602,-0.1602,-0.1645,-0.1646,-0.1646]},{"header":{"parameterUnit":"m.s-1","parameterCategory":1,"la1":30.2991,"la2":30.254,"lo1":-89.0895,"lo2":-89.0444,"dy":0.0017,"dx":0.0017,"nx":28,"ny":28,"refTime":"2023-03-19T21:00:00:Z","depth":0,"parameterNumber":3,"parameterNumberName":"V-component_of_WINDS"},"data":[0,0,0,0,0,0,0,0,0,0,0,0,0,0,0,0,0,0,0,0,0,0,0,0,0,0,0,0,0,0,0,0,0,0,0,0,0,0,0,0,0,0,0,0,0,0,0,0,0,0,0,0,0,0,0,0,0,0,-1.5097,-1.5098,0,-1.5154,-1.5154,-1.5155,-1.516,-1.5159,-1.5159,-1.5158,-1.5216,-1.5218,-1.522,0,0,0,0,0,0,0,0,0,0,0,0,0,-1.4994,-1.4996,-1.5097,-1.5098,-1.5099,-1.5154,-1.5154,-1.5155,-1.516,-1.5159,-1.5158,-1.5158,-1.5215,-1.5217,-1.522,0,0,0,0,0,0,0,0,0,0,0,0,0,-1.5044,-1.4997,-1.5097,-1.5108,-1.5109,-1.5153,-1.5154,-1.5155,-1.516,-1.5159,-1.5158,-1.5157,-1.5214,-1.5217,-1.522,-1.5258,0,0,-1.523,-1.5231,0,0,0,0,0,0,0,0,-1.5041,-1.5048,-1.5105,-1.5107,-1.5109,-1.5149,-1.5139,-1.519,-1.516,-1.5141,-1.5158,-1.5157,-1.5194,-1.5199,-1.5211,-1.5261,-1.5263,-1.523,-1.5232,-1.5234,-1.5234,0,0,0,0,0,0,0,-1.5038,-1.5045,-1.512,-1.5106,-1.5108,-1.511,-1.5116,-1.5149,-1.5172,-1.5142,-1.5143,-1.5149,-1.5195,-1.5208,-1.5213,-1.5264,-1.523,-1.5233,-1.5235,-1.5236,-1.5349,-1.535,0,0,0,0,0,0,-1.5032,-1.5042,-1.5118,-1.5121,-1.5072,-1.5112,-1.5119,-1.5137,-1.5171,-1.5176,-1.515,-1.5149,-1.5203,-1.5209,-1.5215,-1.5263,-1.5233,-1.5236,-1.5238,-1.5348,-1.5349,-1.535,0,0,0,0,0,0,-1.503,-1.5039,-1.5116,-1.5082,-1.5092,-1.5115,-1.5135,-1.5138,-1.5152,-1.5177,-1.5182,-1.516,-1.5203,-1.521,-1.5248,-1.5265,-1.5238,-1.5241,-1.5347,-1.5348,-1.535,-1.5359,0,0,0,0,0,0,-1.5027,-1.5038,-1.5052,-1.5082,-1.5094,-1.5147,-1.5136,-1.514,-1.5157,-1.5157,-1.5188,-1.5192,-1.5203,-1.5243,-1.5251,-1.5269,-1.5243,-1.5345,-1.5347,-1.5349,-1.5357,-1.536,-1.5363,0,0,0,0,0,-1.5023,-1.5052,-1.5053,-1.5062,-1.5112,-1.5148,-1.5155,-1.5167,-1.5159,-1.5174,-1.519,-1.5191,-1.5261,-1.5247,-1.5256,-1.5275,-1.5344,-1.5347,-1.5349,-1.5356,-1.536,-1.5363,0,0,0,0,0,0,-1.5023,-1.5056,-1.5058,-1.5097,-1.512,-1.5149,-1.5168,-1.5171,-1.5196,-1.5195,-1.5209,-1.5216,-1.5253,-1.5267,-1.525,-1.5314,-1.5302,-1.5306,-1.5304,-1.5308,-1.5311,-1.5308,-1.5246,0,0,0,0,0,-1.5028,-1.5054,-1.5081,-1.5114,-1.5125,-1.5145,-1.5161,-1.5168,-1.5193,-1.5202,-1.5221,-1.5245,-1.5273,-1.5291,-1.5318,-1.5358,-1.5366,-1.5376,-1.5379,-1.5382,-1.5386,-1.5411,-1.5416,-1.5359,-1.5359,-1.5359,0,0,-1.5037,-1.5059,-1.5075,-1.5114,-1.5133,-1.5161,-1.5153,-1.5182,-1.5203,-1.5207,-1.5244,-1.5259,-1.5286,-1.5326,-1.5344,-1.5339,-1.5404,-1.5385,-1.5387,-1.539,-1.5414,-1.5419,-1.5424,-1.536,-1.536,-1.536,0,0,-1.507,-1.5088,-1.5118,-1.5137,-1.5165,-1.5178,-1.5185,-1.5214,-1.5225,-1.5262,-1.5266,-1.5291,-1.5338,-1.5358,-1.5374,-1.5415,-1.5417,-1.5423,-1.5441,-1.5465,-1.5469,-1.5473,-1.549,-1.5496,-1.5427,-1.5427,-1.5427,0,-1.5079,-1.5121,-1.5133,-1.5163,-1.5181,-1.5185,-1.5216,-1.5234,-1.527,-1.5282,-1.5275,-1.5336,-1.5354,-1.54,-1.541,-1.5422,-1.5432,-1.5421,-1.5468,-1.5472,-1.5476,-1.5492,-1.5498,-1.5428,-1.5428,-1.5428,-1.5428,0,-1.5131,-1.516,-1.5181,-1.5216,-1.5236,-1.5266,-1.5283,-1.5302,-1.5308,-1.5322,-1.536,-1.5383,-1.5415,-1.5426,-1.5431,-1.5473,-1.5469,-1.5465,-1.5453,-1.5482,-1.5498,-1.5504,-1.5429,-1.5429,-1.5428,-1.5428,0,0,-1.5166,-1.5208,-1.5215,-1.5232,-1.5264,-1.5287,-1.5318,-1.535,-1.5367,-1.5391,-1.5418,-1.5458,-1.5455,-1.5473,-1.5481,-1.5502,-1.5536,-1.5495,-1.5496,-1.5504,-1.5585,-1.559,-1.5597,-1.5536,-1.5538,-1.5539,-1.5584,0,-1.5203,-1.5259,-1.5271,-1.5319,-1.5347,-1.5352,-1.5379,-1.5402,-1.5416,-1.5442,-1.5456,-1.5486,-1.5478,-1.549,-1.551,-1.5527,-1.5553,-1.5524,-1.5563,-1.5565,-1.5559,-1.5604,-1.5609,-1.5651,-1.5589,-1.559,-1.5591,0,-1.5255,-1.5282,-1.5333,-1.5363,-1.5375,-1.5399,-1.5431,-1.5455,-1.5481,-1.549,-1.5511,-1.5517,-1.555,-1.5535,-1.5582,-1.5562,-1.5579,-1.559,-1.5591,-1.5597,-1.5581,-1.5614,-1.5664,-1.5671,-1.56,-1.56,-1.5599,0,-1.5278,-1.5327,-1.5364,-1.5378,-1.5413,-1.5431,-1.5446,-1.5471,-1.549,-1.5517,-1.553,-1.556,-1.5577,-1.5601,-1.5615,-1.5603,-1.5661,-1.5647,-1.5671,-1.567,-1.5684,-1.5684,-1.574,-1.5691,-1.5691,-1.5691,-1.5691,0,-1.5321,-1.5352,-1.5375,-1.5399,-1.5434,-1.5448,-1.5483,-1.5498,-1.5521,-1.5548,-1.5553,-1.5578,-1.5594,-1.5622,-1.5633,-1.5671,-1.5678,-1.5687,-1.569,-1.5688,-1.5687,-1.5701,-1.5699,-1.5693,-1.5692,-1.5692,-1.5692,0,-1.5353,-1.537,-1.5411,-1.5442,-1.545,-1.5475,-1.5502,-1.5525,-1.5538,-1.5572,-1.5581,-1.5603,-1.5636,-1.5652,-1.5692,-1.5699,-1.5743,-1.5743,-1.5735,-1.5736,-1.576,-1.5758,-1.5829,-1.584,-1.5781,-1.5782,-1.5782,0,-1.538,-1.5405,-1.5438,-1.5457,-1.5473,-1.5502,-1.5522,-1.5536,-1.5557,-1.5589,-1.5609,-1.5642,-1.5669,-1.5722,-1.5741,-1.5773,-1.5775,-1.5797,-1.578,-1.5778,-1.5778,-1.5778,-1.5781,-1.5801,-1.5802,-1.5802,-1.5803,0,-1.5427,-1.5435,-1.5463,-1.5495,-1.5518,-1.5544,-1.5569,-1.5584,-1.5602,-1.5624,-1.5658,-1.568,-1.5722,-1.5755,-1.5788,-1.5804,-1.5807,-1.5808,-1.5815,-1.5815,-1.581,-1.5815,-1.5746,-1.5807,-1.5806,-1.5806,-1.5806,-1.5806,-1.546,-1.5483,-1.551,-1.5542,-1.5563,-1.5586,-1.561,-1.5627,-1.5656,-1.5692,-1.5698,-1.5734,-1.5761,-1.5806,-1.5823,-1.5852,-1.5847,-1.5858,-1.5861,-1.5864,-1.5866,-1.5803,-1.5858,-1.5858,-1.5858,-1.5858,-1.5858,0,-1.5509,-1.5527,-1.5556,-1.5592,-1.5617,-1.5617,-1.5645,-1.5667,-1.5699,-1.5724,-1.5751,-1.5791,-1.5823,-1.5846,-1.5879,-1.5898,-1.5901,-1.5907,-1.5907,-1.5911,-1.5867,-1.5859,-1.5905,-1.5905,-1.5905,-1.5905,-1.5904,-1.5904,-1.5538,-1.5578,-1.5588,-1.5639,-1.5656,-1.5693,-1.5709,-1.5731,-1.5751,-1.5796,-1.5823,-1.5837,-1.5862,-1.5897,-1.5927,-1.5933,-1.5946,-1.5953,-1.5959,-1.5918,-1.5914,-1.5909,-1.5901,-1.5955,-1.5955,-1.6,-1.6001,-1.6001]}]]